Retour au catalogue

STARLINK-31371

ActifCommunicationsVLEO
NORAD 58940·PAYLOAD·🇺🇸 United States

Lancé Feb 10, 2024 depuis Vandenberg Space Force Base

Loading…

Prochains Passages (prochaines 24 heures)

TLE

FraisSource: CelesTrak SupGP

Époque: Sep 15, 2026, 02:20 UTC

1 58940C 24027K   26258.09770833  .00029925  00000+0  88412-3 0  2581
2 58940  53.1587 149.2308 0001326  79.5769  13.7440 15.34376371    19

Suivez STARLINK-31371 en temps réel avec AllMySat

Download on the App Store